CW3728 Weather Reports


Display with metric or nautical units.
time (UTC)temp
F
wind
direction
speed
MPH
gust
MPH
rain 1hr
in
rain 24hr
in
rain mn
in
humidity
%
barometer
mb
20260510071044 68 114 0.0 0.0 0.00 0.00 0.00 90 1006.2
20260510070523 69 360 0.0 0.0 0.00 0.00 0.00 90 1006.3
20260510070026 69 360 0.0 0.0 0.00 0.00 0.00 89 1006.3
20260510065527 69 360 0.0 0.0 0.00 0.00 0.00 89 1006.3
20260510065033 69 360 0.0 0.0 0.00 0.00 0.00 90 1006.3
20260510064534 69 360 0.0 0.0 0.00 0.00 0.00 90 1006.2
20260510064041 69 360 0.0 0.0 0.00 0.00 0.00 89 1006.2
20260510063551 69 360 0.0 0.0 0.00 0.00 0.00 89 1006.2
20260510063033 70 360 0.0 0.0 0.00 0.00 0.00 88 1006.2
20260510062548 70 360 0.0 0.0 0.00 0.00 0.00 88 1006.2
20260510062030 70 360 0.0 0.0 0.00 0.00 0.00 88 1006.2
20260510061532 70 360 0.0 0.0 0.00 0.00 0.00 88 1006.1
20260510061046 71 360 0.0 0.0 0.00 0.00 0.00 88 1006.2
20260510060539 71 360 0.0 0.0 0.00 0.00 0.00 88 1006.2
20260510060053 71 360 0.0 0.0 0.00 0.00 0.00 88 1006.2
20260510055533 71 360 0.0 0.0 0.00 0.00 0.00 88 1006.2
20260510055037 71 113 0.0 0.0 0.00 0.00 0.00 88 1006.2
20260510054547 71 360 0.0 0.0 0.00 0.00 0.00 88 1006.2
20260510054051 71 115 0.0 0.0 0.00 0.00 0.00 88 1006.2
20260510053543 72 116 0.0 0.0 0.00 0.00 0.00 87 1006.2
20260510053046 72 116 0.0 0.0 0.00 0.00 0.00 87 1006.3
20260510052533 72 116 0.0 0.0 0.00 0.00 0.00 87 1006.3
20260510052104 72 116 0.0 0.0 0.00 0.00 0.00 88 1006.3
20260510051548 72 116 0.0 0.0 0.00 0.00 0.00 88 1006.1
20260510051102 72 116 0.0 0.0 0.00 0.00 0.00 88 1006.1
20260510050536 72 116 0.0 0.0 0.00 0.00 0.00 88 1006.1
20260510050041 72 116 0.0 0.0 0.00 0.00 0.00 88 1005.9
20260510045536 71 116 0.0 0.0 0.00 0.00 0.00 88 1005.9
20260510045038 71 116 0.0 0.0 0.00 0.00 0.00 87 1005.9
20260510044545 71 116 0.0 0.0 0.00 0.00 0.00 87 1005.8
20260510044048 71 116 0.0 0.0 0.00 0.00 0.00 87 1005.8
20260510043550 72 116 0.0 0.0 0.00 0.00 0.00 86 1005.8
20260510043113 72 116 0.0 0.0 0.00 0.00 0.00 86 1005.8
20260510042603 72 116 0.0 0.0 0.00 0.00 0.00 86 1005.8
20260510042027 72 117 0.0 0.0 0.00 0.00 0.00 86 1005.8
20260510041554 72 116 0.0 0.0 0.00 0.00 0.00 85 1005.7
20260510041059 72 117 0.0 0.0 0.00 0.00 0.00 85 1005.7
20260510040549 72 116 0.0 0.0 0.00 0.00 0.00 85 1005.7
20260510040036 72 116 0.0 0.0 0.00 0.00 0.00 85 1005.5
20260510035549 73 116 0.0 0.0 0.00 0.00 0.00 84 1005.5
20260510035031 73 116 0.0 0.0 0.00 0.00 0.00 84 1005.5
20260510034539 73 116 0.0 0.0 0.00 0.00 0.00 84 1005.5
20260510034050 73 117 0.0 0.0 0.00 0.00 0.00 84 1005.5
20260510033531 73 116 0.0 0.0 0.00 0.00 0.00 83 1005.5
20260510033037 73 117 0.0 0.0 0.00 0.00 0.00 83 1005.5
20260510032609 74 117 0.0 0.0 0.00 0.00 0.00 83 1005.5
20260510032051 74 117 0.0 0.0 0.00 0.00 0.00 81 1005.5
20260510031608 74 117 0.0 0.0 0.00 0.00 0.00 81 1005.2
20260510031100 74 117 0.0 0.0 0.00 0.00 0.00 80 1005.2
20260510030532 74 360 0.0 0.0 0.00 0.00 0.00 80 1005.2
20260510030109 75 117 0.0 0.0 0.00 0.00 0.00 80 1005.2
20260510025549 75 117 0.0 0.0 0.00 0.00 0.00 79 1005.2
20260510025041 75 117 0.0 0.0 0.00 0.00 0.00 78 1005.2
20260510024545 75 117 0.0 0.0 0.00 0.00 0.00 78 1005.1
20260510024038 76 117 0.0 0.0 0.00 0.00 0.00 77 1005.1
20260510023544 76 117 0.0 0.0 0.00 0.00 0.00 76 1005.1
20260510023046 76 117 0.0 0.0 0.00 0.00 0.00 76 1004.9
20260510022544 77 117 0.0 0.0 0.00 0.00 0.00 76 1005.0
20260510022026 77 117 0.0 0.0 0.00 0.00 0.00 75 1005.0
20260510021534 77 117 0.0 0.0 0.00 0.00 0.00 75 1004.7
20260510021108 77 117 0.0 0.0 0.00 0.00 0.00 74 1004.7
20260510020542 78 117 0.0 0.0 0.00 0.00 0.00 74 1004.7
20260510020039 78 117 0.0 0.0 0.00 0.00 0.00 73 1004.7
20260510015540 78 117 0.0 0.0 0.00 0.00 0.00 71 1004.7
20260510015047 78 360 0.0 0.0 0.00 0.00 0.00 69 1004.7
20260510014551 79 117 0.0 0.0 0.00 0.00 0.00 69 1004.5
20260510014034 79 117 0.0 0.0 0.00 0.00 0.00 68 1004.5
20260510013540 80 117 0.0 0.0 0.00 0.00 0.00 66 1004.5
20260510013103 80 117 0.0 0.0 0.00 0.00 0.00 66 1004.2
20260510012548 80 117 0.0 0.0 0.00 0.00 0.00 64 1004.2
20260510012033 80 360 0.0 0.0 0.00 0.00 0.00 64 1004.2
20260510011550 81 360 0.0 0.0 0.00 0.00 0.00 63 1004.1
20260510011044 81 120 0.0 0.0 0.00 0.00 0.00 62 1004.1
20260510010535 82 120 0.0 0.0 0.00 0.00 0.00 61 1004.1
20260510010037 82 120 0.0 0.0 0.00 0.00 0.00 59 1004.0
20260510005539 83 120 0.0 0.0 0.00 0.00 0.00 56 1004.1
20260510005041 83 119 0.0 0.0 0.00 0.00 0.00 57 1004.1
20260510004542 84 119 0.0 0.0 0.00 0.00 0.00 57 1003.8
20260510004034 84 119 0.0 0.0 0.00 0.00 0.00 55 1003.8
20260510003542 85 119 0.0 0.0 0.00 0.00 0.00 59 1003.9
20260510003032 85 120 0.0 0.0 0.00 0.00 0.00 55 1003.7
20260510002541 86 120 0.0 0.0 0.00 0.00 0.00 56 1003.7
20260510002109 86 120 0.0 0.0 0.00 0.00 0.00 55 1003.7
20260510001529 86 119 0.0 0.0 0.00 0.00 0.00 54 1003.6
20260510001046 86 119 0.0 0.0 0.00 0.00 0.00 53 1003.6
20260510000537 86 120 0.0 0.0 0.00 0.00 0.00 52 1003.6
20260510000048 86 120 0.0 0.0 0.00 0.00 0.00 53 1003.4
20260509235550 87 119 0.0 0.0 0.00 0.00 0.00 53 1003.4
20260509235041 87 116 0.0 0.0 0.00 0.00 0.00 56 1003.4
20260509234547 87 116 0.0 0.0 0.00 0.00 0.00 57 1003.3
20260509234032 87 116 0.0 0.0 0.00 0.00 0.00 56 1003.3
20260509233549 87 116 0.0 0.0 0.00 0.00 0.00 52 1003.3
20260509233113 87 116 0.0 0.0 0.00 0.00 0.00 54 1003.4
20260509232534 88 116 0.0 0.0 0.00 0.00 0.00 56 1003.4
20260509232041 87 117 0.0 0.0 0.00 0.00 0.00 55 1003.4
20260509231543 88 116 0.0 0.0 0.00 0.00 0.00 51 1003.1
20260509231049 89 129 0.0 0.0 0.00 0.00 0.00 50 1003.1
20260509230600 89 189 0.0 0.0 0.00 0.00 0.00 53 1003.1
20260509230041 88 292 0.0 0.0 0.00 0.00 0.00 54 1003.1
20260509225528 88 84 0.0 0.0 0.00 0.00 0.00 57 1003.1
20260509225037 88 83 0.0 0.0 0.00 0.00 0.00 54 1003.1
20260509224539 87 83 0.0 0.0 0.00 0.00 0.00 56 1003.1
20260509224041 87 83 0.0 0.0 0.00 0.00 0.00 55 1003.1
20260509223528 86 83 0.0 0.0 0.00 0.00 0.00 58 1003.1
20260509223048 86 83 0.0 0.0 0.00 0.00 0.00 56 1003.3
20260509222549 85 83 0.0 0.0 0.00 0.00 0.00 56 1003.2
20260509222113 83 360 2.0 0.0 0.00 0.00 0.00 61 1003.2
20260509221547 82 79 3.0 0.0 0.00 0.00 0.00 60 1003.9
20260509221043 83 360 4.0 0.0 0.00 0.00 0.00 57 1003.9
20260509220531 83 360 6.0 0.0 0.00 0.00 0.00 61 1003.9
20260509220034 87 101 5.0 0.0 0.00 0.00 0.00 52 1003.5
20260509215542 90 99 4.0 0.0 0.00 0.00 0.00 53 1003.5
20260509215040 91 360 4.0 0.0 0.00 0.00 0.00 51 1003.6
20260509214545 92 360 2.0 0.0 0.00 0.00 0.00 50 1003.2
20260509214037 95 58 0.0 0.0 0.00 0.00 0.00 48 1003.3
20260509213543 94 360 0.0 0.0 0.00 0.00 0.00 49 1003.2
20260509213049 94 360 0.0 0.0 0.00 0.00 0.00 49 1003.3
20260509212544 94 206 0.0 0.0 0.00 0.00 0.00 47 1003.3
20260509212047 95 217 0.0 0.0 0.00 0.00 0.00 46 1003.3
20260509211548 95 360 0.0 0.0 0.00 0.00 0.00 50 1003.5
20260509211123 94 144 0.0 0.0 0.00 0.00 0.00 51 1003.5
20260509210537 94 143 0.0 0.0 0.00 0.00 0.00 49 1003.5
20260509210042 94 154 0.0 0.0 0.00 0.00 0.00 50 1003.6
20260509205544 93 360 0.0 0.0 0.00 0.00 0.00 51 1003.6
20260509205029 93 200 0.0 0.0 0.00 0.00 0.00 53 1003.6
20260509204536 93 360 0.0 0.0 0.00 0.00 0.00 51 1003.9
20260509204039 93 360 0.0 0.0 0.00 0.00 0.00 45 1003.9
20260509203602 93 360 0.0 0.0 0.00 0.00 0.00 48 1003.9
20260509203044 92 124 0.0 0.0 0.00 0.00 0.00 50 1004.1
20260509202534 92 360 0.0 0.0 0.00 0.00 0.00 49 1004.1
20260509202036 92 360 0.0 0.0 0.00 0.00 0.00 51 1004.1
20260509201543 92 360 0.0 0.0 0.00 0.00 0.00 52 1004.2
20260509201056 93 283 0.0 0.0 0.00 0.00 0.00 50 1004.3
20260509200534 92 267 0.0 0.0 0.00 0.00 0.00 51 1004.2
20260509200057 91 278 0.0 0.0 0.00 0.00 0.00 52 1004.6
20260509195550 91 270 0.0 0.0 0.00 0.00 0.00 51 1004.6
20260509195032 92 269 0.0 0.0 0.00 0.00 0.00 53 1004.6
20260509194541 92 241 0.0 0.0 0.00 0.00 0.00 52 1004.6
20260509194104 91 309 0.0 0.0 0.00 0.00 0.00 55 1004.6
20260509193545 91 295 0.0 0.0 0.00 0.00 0.00 52 1004.6
20260509193051 91 265 0.0 0.0 0.00 0.00 0.00 54 1005.1
20260509192532 91 244 0.0 0.0 0.00 0.00 0.00 55 1005.1
20260509192034 91 239 0.0 0.0 0.00 0.00 0.00 54 1005.1
20260509191542 90 246 0.0 0.0 0.00 0.00 0.00 56 1005.2
20260509191116 91 158 0.0 0.0 0.00 0.00 0.00 56 1005.3
20260509190551 91 147 0.0 0.0 0.00 0.00 0.00 56 1005.3
20260509190054 90 360 0.0 0.0 0.00 0.00 0.00 58 1005.6
20260509185546 90 301 0.0 0.0 0.00 0.00 0.00 58 1005.6
20260509185036 90 360 0.0 0.0 0.00 0.00 0.00 56 1005.6
20260509184558 90 360 0.0 0.0 0.00 0.00 0.00 57 1005.7
20260509184051 90 360 0.0 0.0 0.00 0.00 0.00 60 1005.7
20260509183534 89 296 0.0 0.0 0.00 0.00 0.00 58 1005.7
20260509183037 89 275 0.0 0.0 0.00 0.00 0.00 57 1005.7
20260509182540 89 360 0.0 0.0 0.00 0.00 0.00 57 1005.7
20260509182035 89 360 0.0 0.0 0.00 0.00 0.00 61 1005.7
20260509181537 88 360 0.0 0.0 0.00 0.00 0.00 61 1005.8
20260509181051 88 243 0.0 0.0 0.00 0.00 0.00 60 1005.8
20260509180541 88 360 0.0 0.0 0.00 0.00 0.00 61 1005.8
20260509180044 88 360 0.0 0.0 0.00 0.00 0.00 64 1006.0
20260509175548 87 348 0.0 0.0 0.00 0.00 0.00 61 1006.0
20260509175050 88 300 0.0 0.0 0.00 0.00 0.00 64 1006.0
20260509174532 88 287 0.0 0.0 0.00 0.00 0.00 62 1006.2
20260509174045 87 290 0.0 0.0 0.00 0.00 0.00 65 1006.1
20260509173531 86 296 0.0 0.0 0.00 0.00 0.00 67 1006.1
20260509173034 86 309 0.0 0.0 0.00 0.00 0.00 71 1006.3
20260509172535 85 303 0.0 0.0 0.00 0.00 0.00 69 1006.2
20260509172038 85 360 0.0 0.0 0.00 0.00 0.00 68 1006.2
20260509171601 85 360 0.0 0.0 0.00 0.00 0.00 70 1006.3
20260509171057 84 360 0.0 0.0 0.00 0.00 0.00 70 1006.3
20260509170548 85 311 0.0 0.0 0.00 0.00 0.00 68 1006.3
20260509170051 85 263 0.0 0.0 0.00 0.00 0.00 72 1006.2
20260509165553 85 360 0.0 0.0 0.00 0.00 0.00 71 1006.2
20260509165038 84 263 0.0 0.0 0.00 0.00 0.00 74 1006.2
20260509164548 83 264 0.0 0.0 0.00 0.00 0.00 73 1006.3
20260509164050 83 264 0.0 0.0 0.00 0.00 0.00 73 1006.3
20260509163542 82 302 0.0 0.0 0.00 0.00 0.00 76 1006.3
20260509163045 81 302 0.0 0.0 0.00 0.00 0.00 76 1006.3
20260509162539 81 278 0.0 0.0 0.00 0.00 0.00 77 1006.3
20260509162042 81 266 0.0 0.0 0.00 0.00 0.00 77 1006.3
20260509161543 81 360 0.0 0.0 0.00 0.00 0.00 78 1006.3
20260509161050 81 295 0.0 0.0 0.00 0.00 0.00 80 1006.3
20260509160544 80 295 0.0 0.0 0.00 0.00 0.00 79 1006.2
20260509160047 81 281 0.0 0.0 0.00 0.00 0.00 78 1006.2
20260509155549 80 360 0.0 0.0 0.00 0.00 0.00 81 1006.2
20260509155051 80 360 0.0 0.0 0.00 0.00 0.00 81 1006.2
20260509154547 80 360 0.0 0.0 0.00 0.00 0.00 82 1006.3
20260509154030 80 360 0.0 0.0 0.00 0.00 0.00 82 1006.3
20260509153536 80 176 0.0 0.0 0.00 0.00 0.00 84 1006.3
20260509153039 79 106 0.0 0.0 0.00 0.00 0.00 86 1006.2
20260509152546 78 103 0.0 0.0 0.00 0.00 0.00 87 1006.1
20260509152031 77 360 0.0 0.0 0.00 0.00 0.00 88 1006.1
20260509151536 77 98 0.0 0.0 0.00 0.00 0.00 90 1006.8
20260509151051 76 360 0.0 0.0 0.00 0.00 0.00 92 1006.8
20260509150550 75 360 0.0 0.0 0.00 0.00 0.00 92 1006.7
20260509150033 75 360 0.0 0.0 0.00 0.00 0.00 92 1006.8
20260509145536 74 360 0.0 0.0 0.00 0.00 0.00 93 1006.8
20260509145039 74 360 0.0 0.0 0.00 0.00 0.00 93 1006.8
20260509144530 74 360 0.0 0.0 0.00 0.00 0.00 93 1006.8
20260509144036 74 360 0.0 0.0 0.00 0.00 0.00 93 1006.8
20260509143544 74 360 0.0 0.0 0.00 0.00 0.00 93 1006.8
20260509143047 74 360 0.0 0.0 0.00 0.00 0.00 93 1006.6
20260509142534 74 360 0.0 0.0 0.00 0.00 0.00 93 1006.6
20260509142037 74 360 0.0 0.0 0.00 0.00 0.00 93 1006.6
20260509141550 74 360 0.0 0.0 0.00 0.00 0.00 93 1006.1
20260509141045 74 360 0.0 0.0 0.00 0.00 0.00 94 1006.1
20260509140548 73 360 0.0 0.0 0.00 0.00 0.00 94 1006.1
20260509140033 73 360 0.0 0.0 0.00 0.00 0.00 94 1005.8
20260509135537 73 360 0.0 0.0 0.00 0.00 0.00 94 1005.8
20260509135051 73 360 0.0 0.0 0.00 0.00 0.00 94 1005.8
20260509134533 73 360 0.0 0.0 0.00 0.00 0.00 94 1006.2
20260509134035 73 360 0.0 0.0 0.00 0.00 0.00 94 1006.2
20260509133547 73 360 0.0 0.0 0.00 0.00 0.00 94 1006.2
20260509133111 73 360 0.0 0.0 0.00 0.00 0.00 94 1006.1
20260509132532 73 360 0.0 0.0 0.00 0.00 0.00 94 1006.1
20260509132038 73 360 0.0 0.0 0.00 0.00 0.00 94 1006.1
20260509131540 73 360 0.0 0.0 0.00 0.00 0.00 94 1006.1
20260509131054 73 360 0.0 0.0 0.00 0.00 0.00 95 1006.1
20260509130544 73 360 0.0 0.0 0.00 0.00 0.00 95 1006.1
20260509130040 73 360 0.0 0.0 0.00 0.00 0.00 95 1005.6
20260509125541 73 360 0.0 0.0 0.00 0.00 0.00 95 1005.6
20260509125032 73 360 0.0 0.0 0.00 0.00 0.00 95 1005.6
20260509124538 73 360 0.0 0.0 0.00 0.00 0.00 95 1005.7
20260509124101 73 25 0.0 0.0 0.00 0.00 0.00 95 1005.7
20260509123540 73 360 0.0 0.0 0.00 0.00 0.00 95 1005.7
20260509123043 72 360 0.0 0.0 0.00 0.00 0.00 95 1005.8
20260509122533 72 360 0.0 0.0 0.00 0.00 0.00 95 1005.8
20260509122036 72 360 0.0 0.0 0.00 0.00 0.00 95 1005.8
20260509121558 72 360 0.0 0.0 0.00 0.00 0.00 95 1006.2
20260509121051 72 360 0.0 0.0 0.00 0.00 0.00 95 1006.2
20260509120603 72 25 0.0 0.0 0.00 0.00 0.00 94 1006.2
20260509120049 72 360 0.0 0.0 0.00 0.00 0.00 95 1006.0
20260509115550 72 360 0.0 0.0 0.00 0.00 0.00 94 1006.0
20260509115033 72 360 0.0 0.0 0.00 0.00 0.00 94 1006.0
20260509114535 72 360 0.0 0.0 0.00 0.00 0.00 94 1005.9
20260509114037 72 360 0.0 0.0 0.00 0.00 0.00 94 1005.9
20260509113542 72 360 0.0 0.0 0.00 0.00 0.00 94 1005.9
20260509113045 72 360 0.0 0.0 0.00 0.00 0.00 94 1006.0
20260509112548 72 360 0.0 0.0 0.00 0.00 0.00 94 1006.0
20260509112053 72 360 0.0 0.0 0.00 0.00 0.00 94 1006.0
20260509111534 72 360 0.0 0.0 0.00 0.00 0.00 94 1005.7
20260509111048 72 360 0.0 0.0 0.00 0.00 0.00 94 1005.7
20260509110547 72 360 0.0 0.0 0.00 0.00 0.00 94 1005.7
20260509110033 72 360 0.0 0.0 0.00 0.00 0.00 94 1005.5
20260509105537 72 360 0.0 0.0 0.00 0.00 0.00 94 1005.5
20260509105040 72 360 0.0 0.0 0.00 0.00 0.00 94 1005.5
20260509104544 73 360 0.0 0.0 0.00 0.00 0.00 94 1005.7
20260509104047 73 153 0.0 0.0 0.00 0.00 0.00 94 1005.7
20260509103548 73 153 0.0 0.0 0.00 0.00 0.00 94 1005.7
20260509103031 73 360 0.0 0.0 0.00 0.00 0.00 94 1005.7
20260509102533 73 360 0.0 0.0 0.00 0.00 0.00 94 1005.7
20260509102048 73 360 0.0 0.0 0.00 0.00 0.00 94 1005.7
20260509101609 73 360 0.0 0.0 0.00 0.00 0.00 94 1005.5
20260509101042 73 360 0.0 0.0 0.00 0.00 0.00 94 1005.5
20260509100554 73 360 0.0 0.0 0.00 0.00 0.00 94 1005.5
20260509100038 73 360 0.0 0.0 0.00 0.00 0.00 94 1005.3
20260509095600 73 360 0.0 0.0 0.00 0.00 0.00 94 1005.3
20260509095042 73 360 0.0 0.0 0.00 0.00 0.00 94 1005.3
20260509094542 73 154 0.0 0.0 0.00 0.00 0.00 94 1005.1
20260509094046 73 360 0.0 0.0 0.00 0.00 0.00 94 1005.1
20260509093540 73 154 0.0 0.0 0.00 0.00 0.00 93 1005.1
20260509093106 73 153 0.0 0.0 0.00 0.00 0.00 93 1005.3
20260509092536 73 360 0.0 0.0 0.00 0.00 0.00 93 1005.3
20260509092039 73 154 0.0 0.0 0.00 0.00 0.00 93 1005.3
20260509091541 73 153 0.0 0.0 0.00 0.00 0.00 93 1004.9
20260509091046 73 155 0.0 0.0 0.00 0.00 0.00 93 1004.9
20260509090536 73 155 0.0 0.0 0.00 0.00 0.00 93 1004.9
20260509090032 73 153 0.0 0.0 0.00 0.00 0.00 93 1004.7
20260509085540 73 153 0.0 0.0 0.00 0.00 0.00 93 1004.7
20260509085043 73 153 0.0 0.0 0.00 0.00 0.00 93 1004.7
20260509084545 73 152 0.0 0.0 0.00 0.00 0.00 93 1004.7
20260509084032 73 152 0.0 0.0 0.00 0.00 0.00 93 1004.7
20260509083533 73 150 0.0 0.0 0.00 0.00 0.00 93 1004.7
20260509083203 73 360 0.0 0.0 0.00 0.00 0.00 93 1005.1
20260509082531 73 360 0.0 0.0 0.00 0.00 0.00 93 1005.1
20260509082034 73 360 0.0 0.0 0.00 0.00 0.00 93 1005.1
20260509081548 73 360 0.0 0.0 0.00 0.00 0.00 93 1005.0
20260509081101 73 150 0.0 0.0 0.00 0.00 0.00 93 1005.0
20260509080540 73 150 0.0 0.0 0.00 0.00 0.00 93 1005.0
20260509080043 73 150 0.0 0.0 0.00 0.00 0.00 92 1005.0
20260509075604 73 150 0.0 0.0 0.00 0.00 0.00 92 1005.0
20260509075046 73 151 0.0 0.0 0.00 0.00 0.00 92 1005.0
20260509074550 73 150 0.0 0.0 0.00 0.00 0.00 92 1004.7
20260509074044 73 150 0.0 0.0 0.00 0.00 0.00 92 1004.7
20260509073530 73 149 0.0 0.0 0.00 0.00 0.00 92 1004.7
20260509073040 73 149 0.0 0.0 0.00 0.00 0.00 92 1005.0
20260509072553 73 149 0.0 0.0 0.00 0.00 0.00 92 1005.0
20260509072056 73 149 0.0 0.0 0.00 0.00 0.00 92 1005.0
20260509071539 73 149 0.0 0.0 0.00 0.00 0.00 92 1005.2